[[{"header":{"parameterUnit":"m.s-1","parameterCategory":1,"la1":30.2991,"la2":30.254,"lo1":-89.0895,"lo2":-89.0444,"dy":0.0017,"dx":0.0017,"nx":28,"ny":28,"refTime":"2024-08-11T09:00:00:Z","depth":0,"parameterNumber":2,"parameterNumberName":"U-component_of_WINDS"},"data":[0,0,0,0,0,0,0,0,0,0,0,0,0,0,0,0,0,0,0,0,0,0,0,0,0,0,0,0,0,0,0,0,0,0,0,0,0,0,0,0,0,0,0,0,0,0,0,0,0,0,0,0,0,0,0,0,0,0,3.9821,3.9823,0,3.9969,3.997,3.9972,3.9918,3.9915,3.9911,3.9908,4.0062,4.0069,4.0076,0,0,0,0,0,0,0,0,0,0,0,0,0,3.9496,3.9502,3.9821,3.9823,3.9825,3.9968,3.997,3.9972,3.9919,3.9915,3.991,3.9907,4.006,4.0068,4.0077,0,0,0,0,0,0,0,0,0,0,0,0,0,3.964,3.9504,3.9821,3.9815,3.9816,3.9968,3.997,3.9973,3.9919,3.9914,3.9909,3.9905,4.0057,4.0067,4.0078,4.0245,0,0,4.0111,4.0116,0,0,0,0,0,0,0,0,3.9631,3.9652,3.9814,3.9816,3.9817,3.992,3.9912,4.0064,3.9921,3.988,3.9908,3.9902,4.0019,4.0033,4.0071,4.0252,4.0259,4.0112,4.0119,4.0123,4.0126,0,0,0,0,0,0,0,3.9622,3.9645,3.988,3.9817,3.9819,3.9806,3.9821,3.9941,3.9976,3.9884,3.988,3.9898,4.0019,4.0061,4.0075,4.0261,4.0112,4.0121,4.0128,4.0132,4.0585,4.0591,0,0,0,0,0,0,3.9611,3.9637,3.9875,3.9884,3.971,3.9816,3.9833,3.9892,3.9975,3.9982,3.9902,3.9895,4.0045,4.0062,4.008,4.028,4.0123,4.0133,4.014,4.058,4.0586,4.0592,0,0,0,0,0,0,3.9604,3.9632,3.9869,3.976,3.9789,3.9827,3.9894,3.9897,3.9939,3.9989,3.9995,3.9938,4.0042,4.0065,4.0204,4.0284,4.0138,4.0148,4.0573,4.0582,4.059,4.0681,0,0,0,0,0,0,3.9595,3.963,3.9693,3.9761,3.9795,3.999,3.9899,3.9904,3.9958,3.995,4.0024,4.0032,4.004,4.0188,4.0215,4.0296,4.0156,4.0566,4.0577,4.0587,4.0671,4.0692,4.0709,0,0,0,0,0,3.9583,3.9714,3.9697,3.9726,3.9875,3.9995,4.0014,4.0019,3.9965,4.0029,4.006,4.003,4.0271,4.0203,4.0232,4.0318,4.0561,4.0574,4.0586,4.0663,4.0688,4.0709,0,0,0,0,0,0,3.9656,3.9723,3.9705,3.9861,3.9923,3.9985,4.0066,4.0046,4.0125,4.0114,4.0118,4.0135,4.0279,4.0313,4.0235,4.0484,4.0408,4.0427,4.0456,4.048,4.0499,4.0487,4.0165,0,0,0,0,0,3.969,3.9781,3.9835,3.9969,4.0,4.0028,4.0081,4.008,4.0144,4.017,4.0211,4.0275,4.0365,4.0425,4.0511,4.0676,4.0691,4.075,4.0769,4.0784,4.08,4.0889,4.0916,4.0634,4.0633,4.0633,0,0,3.9762,3.981,3.9868,3.9985,4.0032,4.0127,4.0051,4.0154,4.0225,4.0186,4.0319,4.0352,4.0424,4.0577,4.0646,4.0609,4.0882,4.08,4.0812,4.082,4.0905,4.0932,4.0955,4.0642,4.064,4.0639,0,0,3.9941,3.9987,4.0102,4.0151,4.0223,4.024,4.0268,4.0334,4.0354,4.0488,4.046,4.0545,4.07,4.0752,4.0799,4.0997,4.0972,4.1026,4.1124,4.1211,4.1233,4.1253,4.1323,4.1348,4.1042,4.1042,4.1042,0,4.0021,4.0162,4.0164,4.027,4.0322,4.029,4.0407,4.0454,4.0552,4.0589,4.0546,4.074,4.0786,4.095,4.0998,4.1038,4.1069,4.1017,4.123,4.125,4.1268,4.1335,4.1361,4.1048,4.1047,4.1047,4.1046,0,4.0257,4.0355,4.044,4.0533,4.0595,4.0706,4.0725,4.0788,4.0781,4.0803,4.094,4.0994,4.109,4.1129,4.1124,4.1292,4.1267,4.1228,4.1151,4.1301,4.1363,4.1389,4.1056,4.1054,4.1052,4.1051,0,0,4.0486,4.0578,4.0609,4.065,4.0727,4.0803,4.0913,4.1005,4.1059,4.1127,4.1219,4.1351,4.1314,4.1368,4.1368,4.1445,4.1597,4.1396,4.1397,4.143,4.1785,4.1813,4.1842,4.1581,4.1586,4.159,4.1778,0,4.067,4.0861,4.0866,4.1041,4.1132,4.1102,4.1198,4.1255,4.1279,4.136,4.1387,4.148,4.1425,4.1457,4.1531,4.1563,4.1668,4.1549,4.1666,4.167,4.1648,4.1875,4.1906,4.2081,4.1803,4.1807,4.181,0,4.0911,4.0985,4.1169,4.1231,4.127,4.1355,4.144,4.1517,4.1582,4.1594,4.1654,4.1643,4.1755,4.1676,4.1831,4.175,4.1798,4.1821,4.1828,4.1838,4.1748,4.1891,4.2138,4.2163,4.1849,4.1846,4.1843,0,4.1058,4.1204,4.1332,4.1369,4.1446,4.1506,4.1541,4.1601,4.1656,4.1731,4.1766,4.1854,4.1902,4.1969,4.1983,4.1924,4.2138,4.206,4.2151,4.215,4.2196,4.2193,4.2453,4.2229,4.2229,4.2228,4.2228,0,4.1263,4.1376,4.1399,4.1478,4.1604,4.1609,4.1734,4.1765,4.1818,4.1903,4.1884,4.1964,4.1977,4.206,4.2072,4.2197,4.222,4.2232,4.2234,4.2234,4.2232,4.2265,4.2252,4.2235,4.2234,4.2233,4.2231,0,4.1448,4.1469,4.1606,4.1667,4.1685,4.1776,4.1828,4.1904,4.1925,4.2033,4.2058,4.2092,4.2189,4.2209,4.2325,4.2332,4.2482,4.2472,4.2459,4.2458,4.2547,4.2538,4.2837,4.2876,4.2628,4.263,4.2632,0,4.1577,4.1664,4.1733,4.1788,4.1825,4.1914,4.197,4.1978,4.2037,4.2117,4.2183,4.2277,4.2353,4.251,4.2545,4.2633,4.2625,4.2723,4.2638,4.2634,4.2625,4.2619,4.2627,4.2739,4.2742,4.2744,4.2746,0,4.1804,4.1809,4.1889,4.1973,4.2039,4.2106,4.2169,4.2216,4.2232,4.2299,4.2397,4.2456,4.2573,4.2667,4.2755,4.2792,4.2772,4.2773,4.2798,4.2798,4.2787,4.2793,4.2503,4.2766,4.2764,4.2762,4.2761,4.276,4.1965,4.2039,4.2099,4.2189,4.2237,4.2297,4.237,4.24,4.2482,4.2577,4.2577,4.2684,4.2746,4.2862,4.2904,4.2988,4.2958,4.2995,4.3004,4.3013,4.3021,4.2774,4.3005,4.3004,4.3004,4.3003,4.3003,0,4.2189,4.2226,4.2308,4.2397,4.2467,4.2441,4.251,4.2571,4.2665,4.2724,4.2799,4.2911,4.3002,4.3044,4.3134,4.3193,4.3187,4.3217,4.3212,4.3221,4.3044,4.3012,4.3221,4.3221,4.322,4.322,4.322,4.322,4.2314,4.2439,4.2451,4.2599,4.2636,4.2739,4.2781,4.2835,4.2882,4.3008,4.3083,4.3109,4.3162,4.3255,4.3338,4.3348,4.3381,4.3416,4.3422,4.3255,4.3233,4.3212,4.3182,4.3423,4.3423,4.3591,4.3593,4.3594]},{"header":{"parameterUnit":"m.s-1","parameterCategory":1,"la1":30.2991,"la2":30.254,"lo1":-89.0895,"lo2":-89.0444,"dy":0.0017,"dx":0.0017,"nx":28,"ny":28,"refTime":"2024-08-11T09:00:00:Z","depth":0,"parameterNumber":3,"parameterNumberName":"V-component_of_WINDS"},"data":[0,0,0,0,0,0,0,0,0,0,0,0,0,0,0,0,0,0,0,0,0,0,0,0,0,0,0,0,0,0,0,0,0,0,0,0,0,0,0,0,0,0,0,0,0,0,0,0,0,0,0,0,0,0,0,0,0,0,-0.3457,-0.3457,0,-0.3449,-0.3449,-0.3449,-0.3456,-0.3456,-0.3456,-0.3456,-0.3447,-0.3446,-0.3446,0,0,0,0,0,0,0,0,0,0,0,0,0,-0.3475,-0.3475,-0.3457,-0.3457,-0.3457,-0.3449,-0.3449,-0.3449,-0.3455,-0.3456,-0.3456,-0.3456,-0.3447,-0.3446,-0.3446,0,0,0,0,0,0,0,0,0,0,0,0,0,-0.3467,-0.3474,-0.3457,-0.3459,-0.3459,-0.3449,-0.3449,-0.3449,-0.3455,-0.3456,-0.3456,-0.3457,-0.3447,-0.3446,-0.3446,-0.3433,0,0,-0.3443,-0.3443,0,0,0,0,0,0,0,0,-0.3468,-0.3466,-0.3459,-0.3459,-0.3459,-0.3454,-0.3452,-0.3444,-0.3455,-0.3457,-0.3456,-0.3457,-0.3449,-0.3448,-0.3445,-0.3432,-0.3432,-0.3443,-0.3443,-0.3442,-0.3442,0,0,0,0,0,0,0,-0.3468,-0.3467,-0.3454,-0.3458,-0.3459,-0.346,-0.3459,-0.3451,-0.345,-0.3457,-0.3457,-0.3456,-0.3449,-0.3446,-0.3445,-0.3432,-0.3443,-0.3443,-0.3442,-0.3442,-0.3409,-0.3408,0,0,0,0,0,0,-0.3469,-0.3467,-0.3454,-0.3454,-0.3464,-0.3459,-0.3458,-0.3455,-0.3451,-0.345,-0.3456,-0.3457,-0.3447,-0.3446,-0.3445,-0.343,-0.3442,-0.3442,-0.3441,-0.3409,-0.3409,-0.3408,0,0,0,0,0,0,-0.3469,-0.3467,-0.3454,-0.3461,-0.3459,-0.3458,-0.3454,-0.3455,-0.3452,-0.345,-0.345,-0.3453,-0.3448,-0.3446,-0.3436,-0.343,-0.3441,-0.3441,-0.341,-0.3409,-0.3408,-0.34,0,0,0,0,0,0,-0.347,-0.3468,-0.3463,-0.346,-0.3459,-0.3446,-0.3454,-0.3454,-0.3451,-0.3452,-0.3448,-0.3447,-0.3448,-0.3437,-0.3435,-0.3429,-0.344,-0.341,-0.3409,-0.3409,-0.3401,-0.3399,-0.3398,0,0,0,0,0,-0.347,-0.346,-0.3463,-0.3461,-0.3453,-0.3445,-0.3444,-0.3446,-0.345,-0.3446,-0.3445,-0.3447,-0.3431,-0.3436,-0.3434,-0.3427,-0.3411,-0.341,-0.3409,-0.3401,-0.3399,-0.3398,0,0,0,0,0,0,-0.3461,-0.346,-0.3462,-0.3452,-0.3449,-0.3447,-0.344,-0.3443,-0.3438,-0.3439,-0.3441,-0.344,-0.3429,-0.3427,-0.3433,-0.3415,-0.3421,-0.342,-0.3417,-0.3415,-0.3413,-0.3414,-0.3439,0,0,0,0,0,-0.3458,-0.3452,-0.3452,-0.3442,-0.344,-0.3441,-0.3438,-0.3439,-0.3436,-0.3434,-0.3432,-0.3429,-0.3423,-0.3419,-0.3413,-0.3401,-0.34,-0.3395,-0.3394,-0.3392,-0.3391,-0.3385,-0.3383,-0.3405,-0.3405,-0.3405,0,0,-0.3451,-0.345,-0.3446,-0.344,-0.3438,-0.3432,-0.344,-0.3433,-0.3428,-0.3433,-0.3424,-0.3422,-0.3418,-0.3407,-0.3402,-0.3405,-0.3385,-0.3391,-0.339,-0.3389,-0.3384,-0.3381,-0.3379,-0.3404,-0.3405,-0.3405,0,0,-0.3435,-0.3434,-0.3426,-0.3424,-0.3421,-0.3422,-0.342,-0.3418,-0.3417,-0.3408,-0.3412,-0.3406,-0.3396,-0.3393,-0.339,-0.3375,-0.3377,-0.3373,-0.3365,-0.3359,-0.3357,-0.3355,-0.335,-0.3348,-0.3372,-0.3372,-0.3372,0,-0.3426,-0.3418,-0.3421,-0.3414,-0.3412,-0.3417,-0.3409,-0.3407,-0.3402,-0.34,-0.3404,-0.3391,-0.3389,-0.3378,-0.3374,-0.3372,-0.3369,-0.3373,-0.3357,-0.3355,-0.3354,-0.3349,-0.3347,-0.3371,-0.3371,-0.3371,-0.3371,0,-0.3408,-0.3402,-0.3396,-0.3392,-0.3389,-0.3381,-0.3383,-0.3379,-0.3381,-0.3382,-0.3372,-0.337,-0.3364,-0.3362,-0.3363,-0.3351,-0.3353,-0.3357,-0.3363,-0.3351,-0.3346,-0.3344,-0.3371,-0.3371,-0.3371,-0.3371,0,0,-0.3385,-0.3384,-0.3381,-0.338,-0.3378,-0.3373,-0.3366,-0.3362,-0.3359,-0.3355,-0.3349,-0.3341,-0.3345,-0.3342,-0.3343,-0.3338,-0.3326,-0.3343,-0.3343,-0.334,-0.3313,-0.3309,-0.3307,-0.3328,-0.3328,-0.3328,-0.3313,0,-0.3369,-0.3357,-0.336,-0.3348,-0.3343,-0.3349,-0.3343,-0.3341,-0.3341,-0.3336,-0.3336,-0.333,-0.3336,-0.3334,-0.3329,-0.3329,-0.3321,-0.333,-0.3322,-0.3322,-0.3323,-0.3304,-0.3301,-0.3287,-0.3311,-0.3311,-0.331,0,-0.3348,-0.3346,-0.3334,-0.3333,-0.3331,-0.3326,-0.3322,-0.3318,-0.3315,-0.3316,-0.3313,-0.3316,-0.3309,-0.3316,-0.3306,-0.3312,-0.331,-0.3309,-0.3309,-0.3307,-0.3315,-0.3302,-0.3282,-0.328,-0.3307,-0.3308,-0.3308,0,-0.3333,-0.3326,-0.3318,-0.3317,-0.3316,-0.3312,-0.3311,-0.331,-0.3307,-0.3304,-0.3302,-0.3298,-0.3295,-0.3292,-0.3293,-0.3298,-0.3283,-0.3291,-0.3283,-0.3283,-0.3279,-0.3279,-0.3258,-0.3278,-0.3278,-0.3278,-0.3278,0,-0.3314,-0.3307,-0.3311,-0.3306,-0.3298,-0.3301,-0.3293,-0.3293,-0.3292,-0.3287,-0.3292,-0.3287,-0.3289,-0.3285,-0.3286,-0.3278,-0.3276,-0.3276,-0.3277,-0.3276,-0.3276,-0.3273,-0.3274,-0.3278,-0.3278,-0.3278,-0.3278,0,-0.3295,-0.3298,-0.3289,-0.329,-0.329,-0.3284,-0.3284,-0.3279,-0.3281,-0.3274,-0.3273,-0.3274,-0.3269,-0.3271,-0.3265,-0.3266,-0.3255,-0.3257,-0.3256,-0.3256,-0.3249,-0.325,-0.3225,-0.3222,-0.3245,-0.3244,-0.3244,0,-0.3283,-0.3277,-0.3277,-0.3275,-0.3274,-0.327,-0.3268,-0.3271,-0.3268,-0.3266,-0.3262,-0.3257,-0.3254,-0.3245,-0.3246,-0.3241,-0.3243,-0.3235,-0.3242,-0.3242,-0.3242,-0.3243,-0.3242,-0.3233,-0.3233,-0.3232,-0.3232,0,-0.3261,-0.3263,-0.3259,-0.3257,-0.3254,-0.3252,-0.325,-0.3247,-0.3251,-0.3248,-0.3243,-0.3241,-0.3235,-0.3231,-0.3227,-0.3226,-0.323,-0.323,-0.3228,-0.3227,-0.3226,-0.3226,-0.3252,-0.323,-0.323,-0.3231,-0.3231,-0.3231,-0.3244,-0.324,-0.324,-0.3236,-0.3235,-0.3234,-0.323,-0.3231,-0.3227,-0.3224,-0.3226,-0.3221,-0.322,-0.3215,-0.3214,-0.321,-0.3213,-0.321,-0.3209,-0.3208,-0.3207,-0.3228,-0.3209,-0.3209,-0.3209,-0.3209,-0.3209,0,-0.3222,-0.3223,-0.322,-0.3218,-0.3215,-0.322,-0.3218,-0.3215,-0.3211,-0.321,-0.3207,-0.3201,-0.3197,-0.3198,-0.3194,-0.319,-0.3192,-0.3189,-0.3189,-0.3189,-0.3205,-0.3207,-0.3188,-0.3188,-0.3188,-0.3188,-0.3188,-0.3188,-0.3211,-0.3204,-0.3206,-0.3198,-0.3199,-0.3194,-0.3193,-0.3192,-0.3191,-0.3185,-0.3182,-0.3183,-0.3183,-0.3179,-0.3176,-0.3176,-0.3174,-0.3171,-0.3171,-0.3186,-0.3188,-0.319,-0.3192,-0.317,-0.317,-0.3156,-0.3156,-0.3156]}]]